User: anonymous   Login
Location: Cincinnati Observatory Center
(39.1389°N, 84.4225°W)
Time: 11:19:07
(UTC-04:00)
Language:

JAS-1B - Orbit

View from above orbital plane
View from above orbital plane
View from above satellite
View from above satellite

Ground track
Ground track

The orbit data is extracted from the following two-line orbital elements,

1 20480U 90013C   15184.71874370 -.00000030  00000-0  84998-5 0  9990
2 20480 099.0663 081.7725 0539937 210.0006 208.5884 12.83405757190078
Epoch (UTC): 03 July 2015 17:14:59
Eccentricity: 0.0539937
inclination: 99.0663°
perigee height: 912 km
apogee height: 1744 km
right ascension of ascending node: 81.7725°
argument of perigee: 210.0006°
revolutions per day: 12.83405757
mean anomaly at epoch: 208.5884°
orbit number at epoch: 19007

The dashed part of the orbit path shows where the satellite is in the earth's shadow,  

DLR